Location: Caualo
(45.5667°N, 10.8667°E)
Time: 18:34:23
(UTC+00:00)

Cosmos 2237 - Pass Details

Date: 07 June 2020
Orbit: 844 x 858 km, 70.8° (Epoch: 04 July)

Event Time Altitude Azimuth Distance (km) Brightness Sun altitude
Exits shadow 01:54:30 15° 197° (SSW) 2,115 5.7 -12.7°
Maximum altitude 01:59:13 76° 113° (ESE) 885 4.3 -12.2°
Drops below altitude 10° 02:04:57 10° 29° (NNE) 2,498 8.1 -11.6°
Sets 02:07:25 0° 28° (NNE) 3,440 9.2 -11.3°
